Wind_Speed
4 5 5 4 5 4 5 6 5 6 6 6 5 5 4 6 7 8 9 9 8 8 9 9 9 9 9 9 9 8 8 7 7 7 7 7 8 8 8 9 10 10 10 9 9 9 8 8 7
4 4 4 4 5 5 5 8 8 8 8 9 9 9 8 7 8 9 9 9 9 9 9 9 10 9 9 9 9 9 8 7 7 7 8 8 8 8 9 9 10 11 10 10 9 9 9 8 8
6 5 4 3 4 5 7 8 9 9 10 12 13 13 13 10 10 10 11 10 11 10 10 9 9 10 10 9 10 9 9 8 8 8 8 9 9 10 10 10 11 11 11 11 11 10 10 9 9
9 7 5 5 5 5 6 8 9 9 12 13 15 16 15 13 12 12 12 12 12 11 10 10 10 10 11 11 10 10 10 10 9 9 10 10 10 10 11 11 11 12 12 12 12 12 12 11 10
11 9 7 6 7 6 6 7 9 12 14 15 17 18 17 14 13 14 13 13 12 12 11 11 11 11 11 12 11 11 11 11 11 10 10 11 11 11 12 12 13 12 12 13 13 13 13 12 11
14 11 8 7 7 6 6 8 10 13 15 17 20 21 19 16 15 15 15 13 13 13 13 12 12 12 12 12 12 12 12 12 12 12 12 12 13 13 13 13 14 14 14 14 14 14 14 14 13
16 13 10 8 8 6 4 7 11 16 18 20 22 23 21 20 19 17 15 14 14 14 14 13 13 13 13 13 13 13 13 13 13 14 14 14 15 15 15 16 16 15 15 15 15 15 16 16 15
19 16 13 12 11 11 10 10 12 16 20 23 23 24 23 24 22 20 17 16 16 17 16 15 14 14 14 14 14 14 14 15 15 15 16 16 16 16 17 18 18 17 17 17 17 18 17 18 17
21 19 15 15 15 14 14 14 14 18 21 23 25 26 26 26 25 24 20 18 19 20 17 16 16 16 16 15 16 16 16 17 17 17 17 17 17 18 19 19 20 20 19 19 19 20 20 20 20
23 21 17 18 18 17 17 18 18 19 22 24 26 28 28 28 28 26 24 22 22 21 19 18 18 18 18 18 18 18 18 18 19 19 19 19 20 20 21 21 22 22 22 21 21 22 22 22 21
25 22 20 20 20 20 19 19 20 22 25 26 27 28 28 29 29 27 26 24 23 23 21 20 20 20 20 20 20 20 20 20 21 21 21 22 22 23 23 23 23 24 23 24 23 22 22 23 23
25 23 21 21 20 21 20 20 20 22 24 26 27 28 29 30 29 28 28 26 25 24 25 24 23 21 22 22 22 23 24 24 24 24 25 25 25 25 25 26 25 25 25 24 25 25 24 24 24
24 22 21 20 20 21 21 20 21 23 24 26 27 28 29 29 28 28 28 26 25 26 26 26 25 24 25 25 25 25 26 27 27 28 28 29 28 28 27 26 26 25 26 25 26 26 26 26 26
20 19 18 17 17 17 18 19 21 23 24 24 25 26 27 28 29 27 27 26 25 26 27 27 26 27 27 27 26 27 28 29 30 30 30 30 29 28 29 29 28 27 26 26 26 27 28 29 29
16 14 12 12 13 15 17 20 22 23 24 25 25 26 27 27 27 27 26 26 25 26 26 27 27 29 29 29 28 28 29 31 32 32 31 30 29 29 31 30 29 27 27 27 27 28 29 29 29
8 7 7 8 10 13 17 20 22 24 23 24 24 25 24 24 25 25 25 25 25 26 27 28 29 29 30 31 32 32 32 32 33 34 34 33 33 33 32 31 30 29 28 27 27 29 29 28 29
4 5 6 7 9 13 17 20 22 23 23 24 25 25 25 25 25 24 24 25 26 26 27 29 30 31 32 33 35 35 35 35 36 36 35 35 36 36 35 34 32 32 30 29 29 29 29 30 30
5 5 5 7 10 14 16 20 23 23 24 24 25 24 24 24 23 23 24 25 26 27 28 30 31 32 34 35 36 36 37 37 38 38 38 38 38 37 36 35 34 33 32 31 29 29 29 30 30
5 6 7 9 13 17 19 22 23 25 25 22 22 24 22 20 20 21 22 23 25 26 28 30 32 33 34 35 36 37 37 38 38 38 39 39 38 38 37 36 35 34 33 31 30 29 28 29 29
7 9 9 10 13 17 19 21 22 25 26 24 21 19 19 18 18 19 21 22 25 26 28 30 32 34 36 37 37 37 38 39 39 39 40 40 39 38 38 37 36 34 33 31 30 30 29 29 29
7 8 10 13 15 17 20 23 25 25 25 23 19 16 16 17 18 20 22 24 26 28 30 32 34 35 36 37 37 38 38 39 39 39 40 40 40 39 38 37 36 35 34 32 31 31 30 29 31
7 8 9 13 16 18 20 21 22 23 23 20 15 14 15 17 19 21 23 26 27 29 31 32 34 35 35 36 37 37 38 39 39 40 40 40 39 39 38 37 36 35 34 33 32 32 30 31 32
6 8 9 11 12 14 15 17 18 20 18 14 12 13 15 16 19 22 25 26 28 29 30 31 33 34 34 35 36 37 38 39 39 39 39 39 39 39 38 38 37 36 35 34 33 33 32 31 31
7 9 9 10 10 11 13 15 16 14 14 13 14 16 17 18 20 22 24 26 27 28 29 30 31 32 33 34 34 35 36 37 38 38 38 38 39 39 39 39 38 37 36 35 35 34 33 33 32
6 8 8 9 9 10 13 14 13 14 15 15 16 18 20 21 23 24 25 26 27 27 28 29 30 31 32 33 34 35 35 36 37 38 39 39 40 40 40 40 40 39 39 38 36 36 35 35 34
7 8 8 10 10 11 12 13 14 16 17 18 20 22 24 26 26 27 27 28 28 28 29 30 31 32 32 33 34 35 36 36 37 38 39 39 40 41 41 41 41 41 41 40 39 38 37 37 36
8 8 9 10 10 11 11 13 15 18 20 22 24 26 28 29 29 30 30 30 31 31 32 32 33 33 33 34 35 36 37 37 39 40 40 40 40 41 41 41 41 42 42 42 41 40 39 38 38
8 9 9 8 10 11 13 15 17 20 22 25 27 29 30 31 31 32 32 32 33 34 34 34 34 34 34 35 36 37 38 39 40 41 41 42 41 41 42 42 42 42 42 43 43 41 41 40 40
8 8 9 10 12 13 15 17 20 22 25 27 29 30 31 32 32 33 33 33 34 35 36 36 36 36 37 37 38 38 39 40 41 41 41 42 42 42 43 43 42 42 42 43 44 44 44 43 43
8 8 10 12 13 15 17 19 22 23 26 28 30 31 33 33 33 34 34 35 35 36 37 37 37 37 38 38 39 39 40 41 41 41 41 41 41 41 41 42 42 43 44 45 45 45 46 46 46
Wind_Direction
32 47 47 31 14 4 25 39 30 19 359 343 338 328 321 334 338 331 324 324 326 327 326 321 318 319 321 322 324 324 325 327 330 334 335 335 334 332 333 334 334 334 336 338 336 337 339 342 348
356 13 18 17 9 2 21 23 12 1 345 331 326 321 313 321 324 323 320 323 329 326 323 318 316 315 315 316 315 313 313 313 315 319 321 321 321 319 320 323 324 323 323 324 323 323 324 327 329
332 336 347 347 344 347 1 4 0 348 335 326 320 319 314 315 321 320 321 323 325 323 320 316 314 311 309 308 308 306 304 303 304 307 310 311 310 311 311 311 313 313 311 311 311 311 311 312 313
316 321 320 303 302 322 350 347 345 334 317 310 311 312 313 311 320 321 321 322 321 316 313 310 308 308 305 303 303 299 297 296 297 299 301 301 301 302 303 303 304 304 303 303 301 301 301 301 300
306 308 303 292 291 304 334 334 335 320 307 304 310 315 314 315 317 317 316 316 316 313 308 304 302 302 301 297 296 295 294 293 293 293 294 294 295 296 299 298 297 297 295 296 295 293 293 292 291
298 297 290 283 279 289 300 307 304 298 299 301 306 311 314 313 313 315 312 311 311 310 307 301 300 299 298 296 295 294 293 292 292 290 288 289 291 292 293 294 293 292 291 291 289 286 285 285 284
291 288 281 268 251 249 264 280 289 292 295 297 303 309 310 311 308 305 302 302 305 304 302 300 297 296 294 293 292 291 291 291 290 290 288 287 288 290 290 289 288 286 286 286 285 282 281 280 279
284 282 275 263 249 241 246 254 272 282 287 292 297 302 302 307 306 304 300 298 299 297 295 295 295 295 292 291 291 290 289 291 290 289 288 287 287 289 289 287 285 284 283 281 280 279 279 276 275
281 277 270 260 250 242 249 254 264 278 284 289 293 297 300 302 303 301 299 294 298 296 291 293 295 291 289 288 289 289 290 291 291 290 289 288 289 288 288 288 285 284 283 278 277 277 277 274 271
276 274 265 259 252 248 251 258 265 273 280 286 291 293 294 297 298 297 296 293 293 289 287 288 289 286 284 285 286 287 288 288 287 287 286 286 286 288 287 288 286 283 280 276 275 275 273 270 268
272 269 262 257 251 250 253 257 264 272 277 281 287 289 294 294 294 293 293 293 292 288 286 284 281 281 278 277 280 282 284 286 285 284 286 286 286 286 285 285 287 284 280 277 272 273 269 266 264
268 267 261 255 248 246 250 256 261 270 278 282 284 288 290 291 291 293 293 291 291 288 287 283 278 277 279 278 279 282 284 286 284 285 286 286 285 284 284 284 285 285 281 279 275 272 267 264 262
267 264 259 253 247 243 247 255 262 271 277 282 285 287 289 292 293 294 293 292 290 288 286 282 284 282 280 280 280 279 281 284 284 285 286 285 285 283 285 283 284 284 281 280 277 271 267 263 259
265 263 258 253 248 244 246 254 262 270 278 280 284 286 288 290 291 291 292 292 290 288 288 288 288 287 286 281 275 277 281 284 286 288 288 284 285 283 288 285 283 282 279 277 277 272 270 264 259
262 259 252 244 240 242 246 253 263 272 278 279 282 285 286 286 288 291 294 291 290 288 289 290 290 290 291 291 289 286 287 288 287 288 289 287 287 288 290 287 284 282 279 277 276 272 269 265 259
249 233 220 229 235 238 246 255 264 272 277 279 281 287 287 287 290 293 295 294 291 289 290 290 290 290 291 292 292 293 289 290 289 289 289 290 291 293 293 292 287 284 280 279 277 274 267 263 260
206 217 217 229 239 240 247 256 263 267 273 278 280 284 286 287 289 292 294 294 294 292 292 291 291 291 291 290 291 291 290 289 288 288 288 287 289 290 291 291 289 288 285 282 278 274 267 260 259
217 222 228 241 254 256 257 263 266 269 272 277 279 283 284 285 289 290 292 293 293 292 292 291 290 289 289 288 288 288 288 288 287 286 285 286 287 287 287 287 287 285 284 280 275 270 265 259 258
245 252 262 257 264 269 267 268 270 276 278 279 279 281 286 286 288 291 293 294 292 292 291 291 291 290 289 288 287 286 287 287 286 286 285 285 285 285 284 284 284 283 281 277 272 268 264 259 256
265 270 274 277 270 275 274 274 278 282 285 285 286 286 285 284 289 293 296 297 296 294 293 292 292 291 289 288 287 286 286 285 285 285 284 284 283 283 282 281 280 279 278 274 269 266 262 257 252
271 279 276 277 280 285 291 290 294 295 296 291 287 287 288 287 292 295 297 298 298 297 295 294 293 291 290 288 287 286 285 285 284 284 283 283 282 281 280 279 277 276 275 273 268 264 260 253 250
279 285 287 276 279 287 294 306 315 314 313 306 298 295 297 295 295 299 301 301 301 299 297 296 294 293 291 290 288 287 286 286 285 284 282 281 280 279 278 277 275 274 273 272 269 263 258 254 252
292 300 301 299 293 294 301 309 318 324 326 325 324 321 310 306 305 307 306 305 305 304 302 299 297 295 293 291 289 288 287 286 285 283 282 280 278 277 276 275 273 272 271 270 267 262 257 252 250
300 309 312 306 302 304 314 325 336 339 343 339 333 327 322 321 317 314 312 310 309 308 305 302 300 298 297 295 293 291 289 288 286 284 282 280 278 276 275 273 271 269 268 267 265 263 256 252 249
307 313 309 305 306 310 322 330 342 347 348 344 342 339 334 329 326 323 320 317 315 312 308 306 304 302 300 298 296 294 292 289 287 285 283 281 278 276 274 271 269 268 266 265 263 261 257 252 249
332 327 327 327 327 327 334 338 345 349 350 348 345 342 339 337 334 331 327 324 321 318 315 312 309 306 304 301 299 297 295 292 290 288 285 282 279 277 274 271 269 267 265 263 260 258 256 252 247
334 335 336 333 333 333 339 344 349 352 352 349 348 345 343 340 337 334 330 327 325 323 320 317 313 310 307 305 302 300 297 295 293 290 288 284 281 278 274 271 268 265 263 260 258 255 253 251 246
347 346 344 342 342 344 347 352 355 355 352 352 350 346 342 339 337 335 332 329 326 324 323 320 318 315 312 309 306 304 301 298 296 293 290 287 282 279 275 273 269 265 261 258 256 253 251 248 246
352 349 352 353 352 353 354 357 356 355 353 351 348 343 341 339 337 335 333 330 327 326 324 322 320 318 315 312 309 306 304 302 299 296 293 289 284 280 276 273 269 265 261 258 256 253 250 247 244
1 4 2 1 2 1 359 359 357 355 352 350 346 343 341 339 337 335 333 330 328 327 325 323 321 319 317 315 312 309 307 305 302 299 296 292 287 283 278 274 270 265 261 258 255 252 249 246 243
Height
5934 5933 5933 5933 5933 5931 5929 5928 5927 5926 5926 5925 5925 5926 5925 5925 5925 5926 5923 5921 5920 5919 5918 5917 5917 5916 5916 5915 5914 5914 5913 5912 5911 5910 5910 5909 5908 5907 5907 5906 5905 5904 5903 5902 5901 5900 5900 5899 5899
5934 5933 5933 5933 5932 5930 5929 5928 5926 5924 5924 5923 5923 5924 5924 5924 5923 5922 5921 5919 5918 5918 5917 5916 5916 5915 5915 5914 5913 5912 5911 5911 5910 5909 5908 5908 5907 5906 5906 5905 5904 5903 5902 5901 5901 5900 5899 5898 5898
5933 5932 5932 5932 5930 5929 5928 5926 5925 5924 5923 5921 5921 5922 5923 5923 5922 5920 5919 5918 5917 5916 5916 5915 5914 5914 5913 5912 5912 5911 5910 5909 5908 5908 5907 5906 5906 5905 5904 5904 5903 5902 5901 5900 5900 5899 5898 5897 5897
5932 5931 5931 5931 5929 5927 5925 5924 5922 5922 5922 5920 5919 5919 5920 5920 5919 5918 5917 5916 5915 5915 5914 5913 5913 5912 5911 5911 5910 5909 5908 5907 5907 5906 5905 5905 5904 5903 5902 5902 5901 5900 5900 5899 5898 5897 5896 5896 5896
5930 5930 5930 5929 5927 5925 5923 5921 5920 5920 5919 5918 5918 5918 5917 5917 5917 5916 5915 5914 5913 5913 5912 5911 5911 5910 5909 5908 5908 5907 5906 5905 5904 5904 5903 5902 5901 5901 5900 5899 5899 5898 5897 5897 5896 5895 5894 5894 5894
5928 5928 5928 5927 5925 5923 5921 5919 5919 5918 5917 5917 5916 5916 5914 5915 5915 5914 5912 5911 5911 5910 5910 5909 5908 5908 5907 5906 5905 5904 5903 5902 5901 5901 5900 5899 5899 5898 5897 5897 5896 5895 5894 5894 5893 5892 5892 5891 5891
5926 5925 5925 5925 5922 5921 5919 5917 5917 5916 5915 5915 5914 5913 5912 5912 5913 5912 5910 5909 5908 5907 5907 5906 5905 5905 5904 5903 5902 5901 5900 5899 5898 5897 5897 5896 5895 5895 5894 5893 5892 5892 5891 5890 5890 5889 5889 5888 5888
5922 5923 5922 5922 5920 5918 5916 5914 5914 5914 5913 5912 5911 5911 5910 5910 5909 5909 5908 5906 5905 5904 5903 5903 5902 5901 5901 5899 5898 5897 5896 5895 5894 5894 5893 5892 5891 5890 5890 5889 5888 5887 5887 5886 5886 5885 5885 5884 5884
5917 5919 5919 5918 5917 5915 5913 5911 5911 5910 5910 5909 5908 5908 5907 5906 5905 5904 5904 5903 5902 5901 5900 5899 5898 5897 5896 5895 5894 5893 5892 5891 5890 5889 5888 5888 5887 5886 5885 5884 5883 5883 5882 5882 5881 5881 5881 5880 5880
5913 5914 5914 5913 5912 5911 5910 5909 5908 5907 5906 5905 5904 5904 5902 5902 5901 5900 5899 5899 5899 5897 5896 5895 5894 5893 5892 5891 5889 5888 5887 5886 5885 5884 5883 5882 5881 5880 5879 5878 5878 5877 5876 5876 5876 5875 5875 5875 5876
5907 5909 5909 5908 5907 5907 5906 5906 5905 5904 5902 5901 5900 5899 5898 5897 5896 5895 5894 5894 5894 5892 5890 5888 5887 5887 5886 5885 5884 5883 5882 5881 5879 5878 5877 5876 5875 5874 5873 5872 5871 5870 5870 5869 5869 5869 5869 5870 5870
5902 5902 5902 5903 5902 5902 5901 5901 5901 5900 5899 5897 5895 5894 5894 5893 5891 5889 5888 5887 5887 5886 5885 5883 5880 5880 5879 5878 5877 5876 5876 5875 5873 5872 5871 5870 5868 5867 5865 5865 5864 5863 5862 5862 5862 5863 5863 5863 5864
5895 5896 5896 5897 5897 5897 5896 5896 5895 5894 5894 5893 5892 5891 5889 5888 5886 5884 5882 5882 5882 5881 5880 5878 5876 5875 5874 5873 5871 5870 5869 5869 5866 5865 5864 5863 5861 5860 5858 5858 5857 5855 5855 5855 5855 5856 5856 5857 5857
5890 5890 5891 5892 5892 5892 5892 5891 5890 5889 5890 5889 5888 5887 5885 5883 5881 5880 5878 5877 5877 5876 5875 5873 5871 5868 5866 5865 5862 5862 5862 5861 5859 5858 5856 5854 5853 5851 5851 5850 5849 5848 5847 5847 5847 5848 5848 5849 5850
5885 5887 5888 5888 5887 5887 5888 5887 5886 5886 5886 5885 5885 5883 5880 5878 5877 5875 5874 5873 5871 5870 5869 5867 5865 5862 5860 5857 5855 5854 5853 5853 5851 5850 5848 5846 5845 5844 5844 5842 5841 5839 5838 5839 5839 5839 5840 5841 5842
5882 5883 5884 5884 5884 5884 5885 5882 5882 5881 5880 5881 5880 5879 5876 5874 5873 5871 5869 5867 5866 5864 5863 5861 5859 5856 5854 5852 5849 5848 5845 5845 5844 5842 5840 5839 5838 5837 5836 5835 5833 5832 5831 5831 5831 5832 5832 5833 5834
5880 5880 5880 5880 5880 5880 5879 5878 5877 5876 5875 5875 5875 5874 5872 5869 5868 5866 5865 5862 5860 5858 5856 5854 5852 5850 5848 5846 5844 5842 5839 5838 5836 5834 5832 5831 5830 5830 5828 5827 5825 5824 5822 5823 5823 5824 5824 5825 5826
5877 5876 5876 5876 5876 5875 5875 5874 5873 5872 5871 5870 5869 5868 5866 5865 5863 5861 5860 5857 5855 5853 5851 5848 5846 5843 5841 5839 5837 5835 5833 5830 5828 5826 5824 5823 5822 5821 5820 5819 5817 5816 5815 5815 5815 5814 5816 5817 5818
5874 5874 5873 5873 5873 5872 5871 5870 5869 5868 5866 5864 5862 5862 5861 5860 5859 5857 5855 5853 5850 5848 5845 5842 5839 5836 5834 5832 5829 5826 5824 5822 5819 5817 5814 5813 5813 5812 5811 5810 5809 5808 5808 5807 5807 5807 5807 5808 5810
5871 5871 5871 5870 5870 5868 5867 5866 5865 5864 5861 5860 5858 5857 5856 5855 5854 5852 5850 5848 5845 5842 5839 5836 5833 5829 5826 5823 5820 5817 5815 5812 5810 5808 5805 5803 5803 5802 5801 5800 5800 5799 5799 5799 5798 5798 5799 5800 5802
5870 5870 5869 5868 5868 5866 5866 5864 5863 5861 5858 5856 5853 5853 5852 5851 5850 5848 5845 5842 5839 5835 5832 5828 5824 5821 5817 5813 5810 5808 5805 5802 5800 5798 5796 5794 5793 5792 5791 5790 5790 5790 5790 5790 5790 5790 5790 5791 5793
5868 5868 5867 5866 5866 5865 5864 5862 5860 5856 5853 5851 5849 5848 5847 5846 5845 5842 5839 5836 5832 5828 5824 5819 5815 5812 5808 5804 5801 5798 5795 5792 5789 5787 5785 5783 5782 5781 5780 5780 5779 5779 5780 5780 5780 5780 5781 5783 5784
5866 5866 5865 5864 5863 5863 5861 5860 5857 5853 5851 5848 5847 5845 5844 5842 5839 5837 5833 5829 5824 5819 5815 5811 5807 5803 5799 5795 5791 5788 5784 5782 5779 5777 5775 5773 5771 5770 5769 5769 5769 5769 5769 5769 5770 5771 5772 5774 5775
5865 5864 5863 5863 5862 5861 5859 5857 5854 5851 5849 5847 5845 5842 5840 5837 5834 5830 5826 5821 5816 5811 5807 5803 5798 5793 5789 5785 5781 5778 5774 5771 5768 5766 5764 5762 5760 5759 5758 5758 5758 5758 5758 5759 5760 5760 5762 5763 5765
5863 5863 5862 5861 5859 5858 5856 5854 5853 5850 5847 5845 5841 5838 5834 5831 5827 5823 5819 5814 5809 5804 5800 5795 5790 5785 5780 5776 5772 5768 5764 5761 5758 5755 5753 5751 5749 5747 5746 5746 5746 5746 5747 5748 5748 5750 5751 5753 5755
5861 5861 5860 5859 5857 5855 5853 5851 5850 5847 5844 5840 5836 5832 5828 5824 5820 5815 5811 5806 5801 5797 5792 5787 5781 5776 5771 5767 5762 5758 5754 5750 5747 5743 5741 5738 5736 5735 5734 5733 5733 5733 5734 5735 5737 5738 5740 5742 5745
5861 5859 5858 5857 5854 5853 5851 5849 5846 5843 5839 5835 5831 5827 5822 5818 5813 5808 5803 5798 5793 5788 5783 5778 5773 5767 5762 5758 5753 5748 5744 5739 5735 5731 5728 5725 5723 5721 5720 5719 5720 5720 5720 5722 5724 5726 5728 5730 5734
5860 5858 5856 5855 5853 5850 5849 5846 5844 5840 5835 5831 5826 5822 5817 5813 5808 5802 5797 5791 5786 5780 5775 5769 5763 5758 5753 5748 5743 5737 5732 5728 5723 5719 5715 5712 5709 5707 5706 5705 5705 5705 5706 5707 5710 5712 5715 5718 5721
5859 5857 5855 5853 5851 5849 5846 5846 5841 5837 5832 5827 5823 5819 5814 5809 5803 5797 5792 5786 5779 5773 5767 5761 5755 5750 5744 5738 5733 5727 5721 5716 5711 5706 5701 5697 5694 5692 5690 5689 5689 5689 5691 5692 5695 5697 5701 5704 5708
5857 5855 5854 5852 5849 5847 5844 5845 5837 5833 5829 5825 5820 5815 5809 5804 5798 5792 5786 5780 5774 5767 5761 5754 5748 5742 5735 5729 5723 5717 5710 5704 5698 5693 5688 5683 5679 5676 5674 5673 5673 5673 5674 5676 5679 5682 5685 5690 5694